Location: Audrecelles
(50.8240°N, 1.5923°E)
Time: 02:09:22
(UTC+00:00)

Cosmos 44 - Pass Details

Date: 16 October 2025
Orbit: 576 x 774 km, 65.1° (Epoch: 13 November)

Event Time Altitude Azimuth Distance (km) Brightness Sun altitude
Exits shadow 01:36:17 11° 26° (NNE) 2,069 6.3 -41.7°
Drops below altitude 10° 01:36:41 10° 31° (NNE) 2,156 6.4 -41.6°
Sets 01:40:09 0° 54° (NE) 3,138 7.5 -41.3°
